Weather History for Staunton, VA

Change the Weather History Date:

Friday, April 5, 2013

  Actual Average Record
Temperature  
Mean Temperature 50 °F -  
Max Temperature 65 °F 63 °F 77 °F (1997)
Min Temperature 35 °F 39 °F 30 °F (2001)
Degree Days  
Heating Degree Days 15    
Moisture  
Dew Point 32 °F    
Average Humidity 63    
Maximum Humidity 94    
Minimum Humidity 21    
Precipitation  
Precipitation 0.11 in - - ()
Sea Level Pressure  
Sea Level Pressure 29.95 in    
Wind  
Wind Speed 2 mph (NW)    
Max Wind Speed 13 mph    
Max Gust Speed 20 mph    
Visibility 6 miles    
Events Rain    
Averages and records for this station are not official NWS values.
T = Trace of Precipitation, MM = Missing Value Source: NWS Daily Summary

Daily Weather History Graph

Daily Weather History Graph

Search for Another Location

Airport:

Trip Planner

Search our weather history database for the weather conditions in past years. The results will help you decide how hot, cold, wet, or windy it might be!

Date:

Astronomy

Apr. 05, 2013 Rise Set
Actual Time 6:54 AM EDT 7:42 PM EDT
Civil Twilight 6:27 AM EDT 8:09 PM EDT
Nautical Twilight 5:55 AM EDT 8:41 PM EDT
Astronomical Twilight 5:23 AM EDT 9:14 PM EDT
Moon 3:56 AM EDT (4/5) 3:08 PM EDT (4/5)
Length of Visible Light 13h 42m
Length of Day
12h 48m
Waning Crescent, 24% of the Moon is Illuminated
Apr 5
Waning Crescent
Apr 10
New
Apr 18
First Quarter
Apr 25
Full
May 2
Last Quarter

Hourly Weather History & Observations

Time (EDT) Temp. Windchill Dew Point Humidity Pressure Visibility Wind Dir Wind Speed Gust Speed Precip Events Conditions
12:15 AM 35.2 °F - 33.8 °F 94% 30.02 in 2.5 mi Calm Calm - 0.01 in Rain Light Rain
12:35 AM 35.2 °F - 33.8 °F 94% 30.02 in 2.5 mi Calm Calm - 0.01 in Rain Light Rain
12:55 AM 35.2 °F - 33.8 °F 94% 30.00 in 1.8 mi Calm Calm - 0.02 in Rain Rain
1:15 AM 35.4 °F - 33.8 °F 94% 29.99 in 1.8 mi Calm Calm - N/A   Drizzle
1:35 AM 35.2 °F - 33.8 °F 94% 29.98 in 2.0 mi Calm Calm - N/A Rain Light Rain
1:55 AM 35.2 °F - 33.8 °F 94% 29.97 in 3.0 mi Calm Calm - 0.01 in   Light Drizzle
2:15 AM 35.2 °F - 33.8 °F 94% 29.97 in 1.5 mi Calm Calm - N/A Rain Rain
2:35 AM 35.6 °F - 34.0 °F 94% 29.96 in 2.0 mi Calm Calm - 0.01 in Rain Light Rain
2:55 AM 35.6 °F - 34.0 °F 94% 29.95 in 2.0 mi Calm Calm - 0.02 in Rain Light Rain
3:15 AM 35.6 °F - 34.2 °F 94% 29.95 in 2.5 mi Calm Calm - N/A   Drizzle
3:35 AM 35.6 °F - 34.2 °F 94% 29.95 in 2.0 mi Calm Calm - N/A Rain Light Rain
3:55 AM 35.8 °F - 34.2 °F 94% 29.95 in 1.8 mi Calm Calm - 0.03 in Rain Light Rain
4:15 AM 36.0 °F - 34.3 °F 94% 29.95 in 1.5 mi Calm Calm - 0.03 in Rain Rain
4:35 AM 36.0 °F - 34.2 °F 93% 29.95 in 2.5 mi Calm Calm - 0.03 in Rain Light Rain
4:55 AM 36.1 °F - 34.3 °F 93% 29.95 in 2.5 mi Calm Calm - 0.03 in   Light Drizzle
5:15 AM 36.1 °F - 34.3 °F 93% 29.95 in 2.5 mi Calm Calm - N/A   Light Drizzle
5:35 AM 36.1 °F - 34.3 °F 93% 29.96 in 2.5 mi Calm Calm - N/A   Drizzle
5:55 AM 36.5 °F - 34.7 °F 93% 29.96 in 2.0 mi Calm Calm - N/A   Overcast
6:15 AM 36.5 °F - 34.7 °F 93% 29.96 in 2.0 mi Calm Calm - N/A   Drizzle
6:35 AM 36.5 °F - 34.7 °F 93% 29.95 in 1.5 mi Calm Calm - N/A   Light Drizzle
6:55 AM 36.5 °F - 34.9 °F 94% 29.96 in 1.8 mi Calm Calm - N/A   Overcast
7:15 AM 36.7 °F - 35.1 °F 94% 29.95 in 1.2 mi Calm Calm - N/A   Overcast
7:35 AM 36.7 °F - 35.1 °F 94% 29.96 in 1.2 mi Calm Calm - N/A   Overcast
7:55 AM 36.7 °F - 34.9 °F 93% 29.96 in 1.0 mi Calm Calm - N/A   Overcast
8:15 AM 37.2 °F - 35.6 °F 94% 29.96 in 1.8 mi Calm Calm - N/A   Overcast
8:35 AM 37.4 °F - 35.2 °F 92% 29.96 in 1.8 mi Calm Calm - N/A   Overcast
8:55 AM 37.6 °F - 35.6 °F 93% 29.96 in 2.0 mi Calm Calm - N/A   Overcast
9:15 AM 38.3 °F 35.9 °F 35.8 °F 91% 29.97 in 2.5 mi SW 3.5 mph - N/A   Overcast
9:35 AM 39.2 °F - 36.7 °F 91% 29.96 in 2.5 mi Calm Calm - N/A   Overcast
9:55 AM 40.1 °F - 37.4 °F 90% 29.96 in 3.0 mi Calm Calm - N/A   Overcast
10:15 AM 41.5 °F - 38.8 °F 90% 29.96 in 2.5 mi Calm Calm - N/A   Overcast
10:35 AM 43.3 °F - 39.7 °F 87% 29.96 in 3.0 mi Calm Calm - N/A   Overcast
10:55 AM 45.3 °F 44.0 °F 40.6 °F 84% 29.97 in 7.0 mi SSE 3.5 mph - N/A   Scattered Clouds
11:15 AM 46.8 °F - 40.6 °F 79% 29.97 in 7.0 mi Calm Calm - N/A   Clear
11:35 AM 48.7 °F - 40.6 °F 74% 29.96 in 10.0 mi Calm Calm - N/A   Clear
11:55 AM 50.7 °F - 39.9 °F 67% 29.96 in 10.0 mi Calm Calm - N/A   Clear
12:15 PM 51.8 °F - 37.2 °F 58% 29.95 in 10.0 mi Calm Calm - N/A   Clear
12:35 PM 53.1 °F - 37.4 °F 55% 29.95 in 10.0 mi Calm Calm - N/A   Clear
12:55 PM 54.3 °F - 37.4 °F 53% 29.94 in 10.0 mi Calm Calm - N/A   Clear
1:15 PM 55.0 °F - 36.3 °F 49% 29.93 in 10.0 mi Calm Calm - N/A   Clear
1:35 PM 56.7 °F - 35.2 °F 45% 29.91 in 10.0 mi SSW 3.5 mph - N/A   Clear
1:55 PM 59.4 °F - 31.3 °F 35% 29.91 in 10.0 mi NNW 4.6 mph - N/A   Clear
2:15 PM 60.4 °F - 30.2 °F 32% 29.90 in 10.0 mi North 4.6 mph - N/A   Clear
2:35 PM 61.0 °F - 29.7 °F 31% 29.89 in 10.0 mi West 5.8 mph - N/A   Clear
2:55 PM 62.1 °F - 26.4 °F 26% 29.88 in 10.0 mi WNW 6.9 mph - N/A   Clear
3:15 PM 63.5 °F - 23.2 °F 21% 29.88 in 10.0 mi NNW 3.5 mph - N/A   Clear
3:35 PM 63.9 °F - 23.9 °F 22% 29.87 in 10.0 mi WNW 4.6 mph - N/A   Clear
3:55 PM 64.9 °F - 24.8 °F 22% 29.87 in 10.0 mi NNW 5.8 mph 17.3 mph N/A   Clear
4:15 PM 64.9 °F - 23.5 °F 21% 29.87 in 10.0 mi NW 6.9 mph - N/A   Clear
4:35 PM 65.8 °F - 26.2 °F 22% 29.87 in 10.0 mi North 6.9 mph - N/A   Clear
4:55 PM 65.3 °F - 25.2 °F 22% 29.88 in 10.0 mi North 6.9 mph 17.3 mph N/A   Clear
5:15 PM 65.3 °F - 24.3 °F 21% 29.88 in 10.0 mi NW 9.2 mph - N/A   Clear
5:35 PM 64.9 °F - 24.8 °F 22% 29.89 in 10.0 mi NW 12.7 mph 19.6 mph N/A   Clear
5:55 PM 64.4 °F - 24.3 °F 22% 29.90 in 10.0 mi NW 12.7 mph - N/A   Clear
6:15 PM 63.7 °F - 25.5 °F 24% 29.91 in 10.0 mi NW 10.4 mph - N/A   Clear
6:35 PM 62.8 °F - 23.9 °F 23% 29.91 in 10.0 mi NNW 10.4 mph - N/A   Clear
6:55 PM 61.7 °F - 25.3 °F 25% 29.92 in 10.0 mi NNW 9.2 mph - N/A   Clear
7:15 PM 60.3 °F - 26.2 °F 27% 29.93 in 10.0 mi NNW 5.8 mph - N/A   Clear
7:35 PM 59.2 °F - 25.7 °F 28% 29.94 in 10.0 mi NW 6.9 mph - N/A   Clear
7:55 PM 56.7 °F - 26.4 °F 31% 29.95 in 10.0 mi NW 4.6 mph - N/A   Clear
8:15 PM 52.9 °F - 27.9 °F 38% 29.96 in 10.0 mi WNW 5.8 mph - N/A   Clear
8:35 PM 52.2 °F - 28.9 °F 41% 29.97 in 10.0 mi WNW 5.8 mph - N/A   Clear
8:55 PM 50.9 °F - 29.1 °F 43% 29.98 in 10.0 mi NW 3.5 mph - N/A   Clear
9:15 PM 51.8 °F - 27.5 °F 39% 30.00 in 10.0 mi NNW 3.5 mph - N/A   Clear
9:35 PM 47.1 °F - 29.3 °F 50% 30.01 in 10.0 mi North 3.5 mph - N/A   Clear
9:55 PM 52.2 °F - 26.4 °F 37% 30.02 in 10.0 mi North 3.5 mph - N/A   Clear
10:15 PM 50.0 °F - 27.7 °F 42% 30.03 in 10.0 mi Calm Calm - N/A   Clear
10:35 PM 52.2 °F - 26.8 °F 37% 30.04 in 10.0 mi North 3.5 mph - N/A   Clear
10:55 PM 48.6 °F - 28.4 °F 46% 30.05 in 10.0 mi Calm Calm - N/A   Clear
11:15 PM 49.8 °F - 27.9 °F 43% 30.05 in 10.0 mi North 4.6 mph - N/A   Clear
11:55 PM 43.9 °F - 29.7 °F 57% 30.06 in 10.0 mi Calm Calm - N/A   Clear